STARLINK-1215, 45225

Orbit data source: Space-Track

STARLINK-1215, 45225 is a payload satellite owned by SpaceX/Seattle (US) in LEO that was launched on Mon, 17 Feb 2020 UTC via an FALCON 9 launch vehicle from the Air Force Eastern Test Range (AFETR). Payload-class satellites include a variety of spacecraft equipped with specific instruments for various scientific and technological missions. These include communications satellites like Starlink; space stations such as the ISS; scientific satellites like the Hubble; Earth observation satellites from companies like Planet Labs, Umbra, and HawkEye 360; GPS; miniature CubeSats for education and research; and military/defense satellites.

Loading next visibility...
Identifier
45225, 2020-012AZ
Orbit
LEO
Country
Flag of USUS
Related business
Manufacturer
SpaceX/Seattle
Mission
Operational Commercial Communications
Bus & Motor
STARLINK, Unknown motor
Mass
260 kg wet, ~248 kg dry
Launch date (UTC)
2020-02-17 (6 years ago)
Launch vehicle
FALCON 9
Launch site
Air Force Eastern Test Range (AFETR)
Object type
Payload
Rocket body
Debris
Shape & HBR
Box + 1 Pan, 10.1 m
Radar Cross Section
13.562 m², Large (>1 m²)

Expand to show TLE details & history
Last TLE update: 7 hours ago

TLE from 7 hours ago
0 STARLINK-1215
1 45225U 20012AZ  26073.94618403  .00007558  00000-0  26688-3 0  9994
2 45225  53.1596 333.8890 0001248  87.4585 272.6559 15.30220651336288
Epoch: 2026-03-14T22:42Z
TLE epoch observation values (Epoch: 2026-03-14T22:42:30.300Z)
Latitude
0.00003°
Longitude
-179.2973°
Altitude
476.014 km
Speed
7.629 km/s
True Right ascension
22h 15m 33s
True Declination
0° 00' 00"
Sunlit
Object was in daylight at epoch
Visualization orbit readout
Latitude
Unknown
Longitude
Unknown
Altitude
Unknown
Speed
Unknown
Apparent Right ascension
Unknown
Apparent Declination
Unknown
Sunlit
N/A
Visualization observer readout
Local Sidereal Time
10:31:26
Azimuth
Unknown
Elevation
Unknown
Doppler factor
Unknown
Orbital elements
Apogee altitude
476.265 km
Perigee altitude
474.555 km
Semi-major axis
6,853.547 km
Eccentricity
0.00012
Inclination
53.1596°
RAAN
333.889°
Arg. of periapsis
87.4585°
True anomaly
272.64161°
Mean anomaly
272.6559°
Eccentric anomaly
272.64876°
Mean motion
3.82534 °/min
Orbital period
94.11 mins
BSTAR
0.00026688
Loading maneuver chart data...
Computing Atmospheric mass density...

Documentation

Showing up to 5 results
|